Wind_Speed
17 18 24 30 32 31 30 32 33 34 29 32 33 38 41 42 38 34 26 14 10 14 24 25 19 16 21 21 20 17 15 13 12 9 5 6 4 4 6 8 7 9 7
19 20 25 26 27 31 31 34 34 30 27 33 35 40 41 44 38 27 22 10 7 13 18 26 21 13 16 17 17 19 18 17 17 15 11 4 2 3 3 5 6 8 7
26 24 24 28 31 34 35 36 34 33 34 36 38 39 39 36 26 23 18 8 4 11 17 21 18 9 8 10 11 13 13 15 15 10 9 11 10 9 7 6 4 8 7
26 23 28 33 33 33 34 24 26 29 29 35 37 33 31 26 20 15 12 7 4 13 17 15 18 10 2 5 6 7 8 13 13 12 12 14 15 14 8 6 6 6 6
22 22 23 27 27 25 21 25 28 33 31 29 28 28 24 15 13 12 10 10 7 10 12 17 14 12 5 1 2 3 5 4 7 8 9 12 13 14 12 7 6 6 6
20 18 19 18 20 20 24 25 29 26 25 27 24 20 13 15 11 13 11 12 11 11 15 16 15 8 7 3 3 3 1 2 6 8 12 12 12 13 13 9 6 6 7
20 19 19 18 19 20 25 24 25 29 25 20 17 13 14 12 13 15 15 16 18 19 25 23 14 4 3 5 7 2 3 1 5 7 10 6 14 13 11 11 6 5 7
22 21 22 24 23 25 26 26 24 23 18 13 10 10 12 15 18 23 26 25 22 20 19 26 31 19 3 5 7 8 3 2 7 9 10 11 11 15 11 8 6 7 5
23 21 21 22 22 24 17 17 19 15 11 6 8 13 16 18 22 24 24 25 29 29 24 21 25 29 15 4 5 11 8 7 2 7 16 17 16 15 11 9 7 6 7
16 14 16 17 14 15 16 11 12 5 5 10 17 15 17 20 20 21 22 25 25 24 25 27 26 21 28 24 5 8 6 10 10 3 12 21 23 23 15 11 10 2 4
14 17 15 12 11 7 8 7 4 9 11 16 16 19 18 18 19 18 22 24 24 24 24 24 27 25 22 22 23 18 6 7 7 11 6 10 14 20 18 14 12 8 6
16 16 7 3 5 6 2 7 9 11 12 12 15 16 17 16 18 14 14 19 21 21 23 21 22 24 25 21 22 17 4 9 10 15 23 18 19 18 16 20 17 16 13
6 2 1 4 4 3 9 10 10 11 11 14 15 16 16 14 17 13 13 16 18 19 21 21 18 18 20 20 21 14 10 9 1 6 13 26 33 27 23 21 24 23 21
1 1 2 4 6 11 11 11 11 14 16 15 15 13 13 15 14 12 13 14 17 17 19 19 20 20 16 18 20 21 22 11 10 9 11 15 11 20 29 23 27 29 26
2 4 5 9 14 11 11 14 16 15 15 13 12 13 14 14 13 14 15 15 17 18 18 19 19 20 18 14 16 18 26 26 20 11 11 15 13 9 13 28 29 28 28
6 8 14 16 13 11 13 15 14 12 10 12 12 13 13 14 13 14 16 17 19 21 22 22 21 21 18 15 7 8 19 27 24 17 19 20 15 13 11 8 27 30 29
16 18 16 14 14 13 12 12 13 13 12 14 12 13 12 13 14 15 15 17 19 20 21 22 21 21 21 21 11 9 17 20 26 27 28 29 22 15 11 11 7 28 28
17 16 16 14 13 12 13 14 13 12 12 11 12 14 14 15 16 15 15 16 18 21 22 23 22 22 22 22 14 11 16 13 21 25 25 31 37 36 14 10 12 14 26
15 16 15 14 12 11 11 12 10 10 10 11 12 14 16 16 16 15 17 17 20 22 24 25 24 23 20 15 15 10 13 17 21 27 21 22 31 38 31 24 13 9 14
18 17 15 12 10 10 10 8 7 7 8 10 13 16 17 16 16 17 18 20 22 24 26 26 23 23 18 10 12 11 14 14 24 26 23 22 26 27 39 34 22 14 8
18 15 13 11 10 8 6 6 5 6 9 12 14 15 15 15 18 21 23 25 26 27 26 26 25 27 21 11 14 10 19 18 24 23 27 22 24 27 29 33 33 22 19
13 12 9 8 6 3 2 5 7 8 11 13 14 15 14 17 21 24 27 30 31 30 27 25 27 27 26 18 20 19 20 20 23 24 29 26 23 27 30 27 35 28 25
13 11 9 7 5 2 3 6 7 11 13 15 14 14 17 21 25 27 31 32 33 32 27 27 31 31 27 22 23 28 28 23 26 26 30 29 25 25 31 23 35 33 31
12 10 9 7 6 6 5 7 10 13 15 14 15 17 19 23 27 30 32 36 39 39 35 31 31 31 31 28 26 25 26 28 30 34 33 27 26 25 27 29 30 34 30
13 12 10 9 10 9 7 9 12 14 14 15 15 17 20 24 28 32 35 36 39 41 42 38 36 35 35 34 31 30 29 31 32 35 36 37 32 23 28 32 30 35 33
14 12 11 13 12 11 11 12 15 14 15 15 18 21 23 25 27 31 35 37 39 43 43 42 38 36 36 36 35 37 35 32 35 37 38 38 37 33 30 32 37 36 39
Wind_Direction
291 257 241 252 263 273 280 288 299 309 306 308 311 314 327 328 327 329 336 347 18 10 32 32 34 73 86 84 84 86 94 97 88 87 99 64 55 12 357 349 14 10 359
295 289 276 275 276 286 287 292 297 303 299 308 313 318 325 322 321 327 335 353 29 24 24 29 35 77 91 83 82 80 78 84 77 55 45 28 358 344 314 320 345 354 3
301 292 277 277 279 277 287 290 295 298 295 306 310 317 316 318 326 334 343 2 35 16 353 20 33 56 93 101 85 81 83 82 86 86 65 48 32 2 342 325 317 330 351
298 283 259 265 273 277 282 298 305 304 306 306 310 314 319 324 337 349 2 9 28 351 354 9 28 33 83 121 100 74 69 64 60 58 53 48 39 28 12 350 351 337 358
293 280 276 275 280 285 291 298 299 302 308 316 314 319 327 348 2 3 17 28 9 351 348 353 4 23 29 199 165 94 85 64 13 35 32 27 22 26 15 20 12 357 1
289 281 282 287 293 291 290 297 304 316 320 320 319 328 344 351 10 23 28 30 12 358 347 342 335 358 20 44 170 223 231 18 1 8 3 351 3 4 8 6 16 7 355
286 291 288 290 288 288 286 297 309 310 311 313 324 344 356 18 43 48 48 47 51 56 50 42 26 5 39 53 65 175 235 339 29 6 309 319 345 348 352 2 358 352 346
281 280 276 274 282 285 295 299 303 306 307 320 343 20 47 65 73 75 70 59 47 42 51 46 38 40 139 124 86 87 98 47 46 337 312 312 322 330 316 331 352 354 357
280 287 279 285 283 283 301 307 305 308 318 343 57 72 78 78 74 73 65 62 57 52 49 33 38 51 58 125 97 83 93 106 99 289 300 300 281 306 296 302 317 7 1
280 284 283 285 289 301 306 309 316 338 78 84 89 82 80 74 76 79 67 56 46 44 42 39 42 44 49 57 56 94 113 138 182 270 279 276 296 273 276 284 288 310 24
271 282 282 296 310 322 317 323 74 86 92 95 91 90 86 79 70 70 62 52 45 48 38 46 48 48 48 37 49 62 249 216 253 206 258 298 274 279 262 263 275 248 233
274 275 277 309 333 335 358 111 106 86 92 87 84 83 83 74 70 57 51 41 31 29 37 41 46 48 47 42 44 62 50 228 217 232 251 273 291 288 274 259 258 254 259
234 209 339 353 5 94 118 115 100 92 96 89 87 84 68 43 46 49 27 21 14 19 30 29 32 36 44 39 32 33 43 37 346 352 297 270 263 270 277 259 252 255 255
170 13 351 81 124 123 115 105 95 92 90 92 93 74 48 37 34 21 14 18 22 17 22 20 22 29 33 45 46 48 52 32 355 338 23 20 355 267 264 265 255 245 250
161 113 116 136 130 127 112 104 94 85 81 71 52 45 41 38 26 14 12 13 13 10 14 20 22 22 25 49 59 47 44 36 39 36 27 7 4 349 267 251 251 252 241
114 117 130 134 126 117 111 100 86 73 65 61 51 43 33 26 15 11 9 8 6 9 12 19 15 13 14 17 47 44 1 22 20 29 26 11 9 19 11 330 244 244 248
125 130 131 129 121 111 103 87 77 69 65 57 45 36 17 12 4 8 5 7 10 8 12 10 5 0 354 1 7 20 13 33 33 33 35 31 22 10 350 347 290 236 237
133 133 128 125 114 103 95 82 75 68 56 49 33 22 13 4 2 5 4 6 6 4 3 359 359 356 357 359 7 9 22 24 13 11 15 29 29 26 1 341 347 239 231
140 136 135 129 118 104 89 69 64 55 42 29 15 11 6 2 357 4 0 2 360 357 353 355 355 356 2 2 353 345 350 12 4 14 359 13 19 23 27 15 352 327 243
147 145 141 133 126 109 90 74 65 44 31 16 5 6 5 1 2 356 357 355 350 350 350 352 355 356 353 354 355 338 341 335 347 360 3 8 19 12 20 22 9 357 306
147 151 152 142 130 113 88 55 32 20 11 3 360 3 3 2 360 353 352 353 350 350 352 354 358 356 348 343 342 329 336 332 343 347 350 8 5 7 4 14 13 3 18
157 162 160 153 141 124 39 17 4 350 353 359 355 356 359 354 357 358 353 354 353 350 352 354 356 359 347 331 333 335 337 330 342 347 349 352 353 358 359 15 15 16 6
179 180 179 185 194 217 311 334 344 344 354 351 352 348 350 353 355 352 354 355 354 352 346 345 351 351 351 332 326 330 338 347 351 337 347 339 337 338 356 354 5 8 15
196 201 207 213 226 240 279 326 337 339 347 349 343 342 345 348 349 349 347 350 351 350 346 342 343 346 350 345 335 331 338 338 348 345 345 339 331 327 343 346 343 355 1
216 227 230 233 242 254 289 317 328 333 337 336 337 339 340 340 345 343 342 345 346 346 344 339 336 341 343 349 347 340 342 343 339 340 339 342 347 330 321 328 329 340 339
240 247 251 251 258 269 294 307 316 321 324 330 331 337 336 334 335 333 335 340 343 343 339 337 330 334 338 340 344 343 339 337 341 338 336 334 345 336 336 318 321 325 325
Height
11020 11017 11014 11013 11011 11009 11007 11004 11001 10999 10997 10995 10993 10990 10984 10980 10976 10972 10969 10966 10962 10959 10955 10949 10945 10941 10939 10938 10938 10937 10937 10938 10938 10938 10937 10935 10935 10933 10932 10931 10930 10929 10928
11018 11016 11013 11010 11008 11004 11003 11000 10998 10998 10996 10994 10991 10988 10982 10978 10974 10970 10968 10965 10962 10959 10955 10951 10948 10946 10943 10942 10942 10941 10940 10940 10940 10940 10938 10936 10935 10933 10932 10932 10931 10929 10928
11012 11011 11009 11007 11004 11001 11000 10999 10998 10997 10995 10992 10989 10985 10981 10976 10972 10969 10966 10964 10963 10960 10956 10953 10949 10947 10945 10944 10943 10943 10943 10942 10941 10940 10939 10937 10936 10935 10934 10933 10932 10931 10930
11008 11007 11005 11003 11000 10999 10999 10998 10996 10995 10993 10990 10987 10982 10978 10974 10971 10967 10965 10965 10963 10961 10957 10954 10951 10948 10946 10946 10945 10946 10946 10945 10944 10943 10942 10939 10937 10936 10935 10934 10933 10932 10931
11003 11002 11000 10998 10998 10997 10996 10995 10994 10992 10990 10987 10983 10979 10976 10973 10970 10967 10966 10965 10964 10962 10958 10955 10952 10948 10946 10945 10946 10946 10948 10948 10946 10945 10944 10942 10941 10939 10937 10935 10933 10933 10933
10999 10998 10997 10996 10995 10994 10994 10993 10992 10990 10988 10984 10981 10977 10975 10973 10971 10968 10967 10965 10964 10962 10959 10955 10950 10949 10947 10945 10946 10947 10947 10946 10947 10946 10946 10944 10943 10941 10939 10937 10935 10935 10934
10997 10996 10994 10993 10993 10992 10991 10990 10989 10988 10986 10983 10980 10977 10975 10972 10970 10969 10968 10967 10965 10963 10959 10954 10949 10947 10946 10946 10947 10947 10947 10947 10948 10948 10945 10944 10944 10942 10941 10939 10937 10936 10935
10993 10993 10992 10991 10990 10989 10989 10988 10987 10986 10984 10982 10979 10977 10974 10972 10971 10970 10969 10969 10966 10963 10960 10956 10951 10947 10944 10945 10947 10948 10948 10947 10945 10943 10943 10942 10942 10941 10941 10940 10938 10937 10936
10991 10990 10989 10989 10987 10987 10987 10986 10985 10984 10982 10980 10979 10978 10975 10974 10974 10973 10972 10971 10968 10966 10963 10959 10955 10950 10945 10946 10947 10951 10947 10945 10941 10942 10942 10942 10940 10939 10940 10940 10939 10938 10939
10988 10987 10987 10987 10986 10986 10985 10984 10983 10982 10981 10980 10980 10979 10978 10978 10975 10974 10973 10972 10970 10968 10966 10963 10958 10954 10950 10949 10949 10953 10948 10945 10942 10943 10939 10938 10935 10938 10937 10937 10938 10938 10939
10985 10985 10985 10984 10984 10984 10984 10984 10983 10983 10982 10982 10981 10981 10981 10979 10978 10977 10976 10973 10972 10969 10968 10965 10961 10957 10954 10952 10952 10955 10949 10945 10947 10941 10937 10937 10936 10935 10936 10935 10937 10937 10938
10983 10983 10983 10983 10984 10984 10984 10984 10984 10984 10984 10984 10983 10983 10983 10981 10981 10979 10978 10976 10974 10972 10970 10968 10964 10962 10958 10955 10953 10954 10948 10944 10945 10944 10941 10937 10935 10934 10933 10933 10934 10936 10937
10981 10982 10982 10983 10984 10985 10985 10986 10985 10985 10985 10985 10985 10985 10984 10982 10980 10980 10980 10978 10975 10973 10971 10970 10967 10964 10961 10957 10954 10951 10947 10943 10942 10938 10935 10932 10931 10929 10929 10930 10931 10933 10934
10981 10981 10982 10983 10984 10986 10987 10987 10987 10987 10986 10986 10986 10985 10986 10983 10982 10981 10981 10979 10976 10974 10972 10970 10967 10963 10962 10959 10956 10951 10949 10945 10940 10937 10935 10931 10925 10924 10926 10928 10926 10927 10929
10980 10980 10982 10984 10986 10988 10988 10989 10989 10988 10988 10987 10987 10987 10985 10985 10984 10982 10981 10978 10976 10974 10971 10969 10965 10963 10961 10959 10956 10954 10950 10948 10944 10939 10935 10931 10926 10922 10920 10921 10921 10920 10922
10979 10980 10983 10987 10988 10989 10991 10991 10991 10990 10990 10989 10988 10987 10986 10985 10985 10983 10980 10977 10975 10972 10968 10966 10964 10961 10959 10959 10956 10953 10949 10946 10943 10940 10937 10930 10925 10919 10916 10912 10911 10913 10918
10981 10983 10987 10989 10990 10991 10992 10993 10992 10992 10992 10990 10989 10988 10987 10985 10983 10981 10979 10976 10974 10971 10968 10965 10963 10959 10956 10954 10952 10952 10949 10945 10942 10938 10933 10927 10922 10916 10911 10907 10903 10907 10911
10983 10986 10988 10990 10992 10994 10994 10994 10994 10994 10994 10992 10990 10988 10986 10985 10983 10980 10978 10975 10973 10970 10967 10964 10961 10959 10954 10951 10950 10949 10947 10943 10940 10937 10933 10929 10923 10916 10910 10906 10903 10899 10902
10984 10988 10990 10993 10994 10994 10995 10995 10996 10995 10993 10993 10992 10990 10987 10985 10983 10980 10978 10975 10973 10969 10966 10962 10959 10956 10954 10951 10947 10946 10944 10942 10938 10934 10930 10926 10922 10916 10910 10906 10901 10899 10897
10986 10989 10992 10994 10994 10995 10996 10996 10996 10995 10994 10993 10992 10989 10987 10984 10983 10980 10977 10974 10971 10968 10964 10961 10958 10955 10952 10950 10947 10943 10942 10938 10935 10931 10928 10924 10919 10915 10910 10905 10900 10897 10896
10987 10990 10991 10993 10994 10996 10997 10997 10996 10995 10994 10993 10990 10988 10987 10985 10982 10979 10976 10973 10970 10966 10962 10959 10956 10953 10950 10947 10945 10943 10938 10935 10933 10929 10926 10922 10917 10912 10910 10905 10897 10894 10891
10987 10989 10991 10992 10994 10996 10996 10996 10995 10994 10993 10991 10989 10987 10985 10984 10981 10978 10974 10970 10968 10963 10960 10957 10954 10952 10947 10945 10941 10939 10937 10932 10928 10926 10921 10917 10914 10910 10905 10902 10899 10893 10890
10987 10988 10990 10992 10994 10995 10995 10996 10994 10992 10991 10989 10987 10985 10982 10980 10977 10975 10971 10969 10965 10961 10958 10955 10951 10949 10946 10941 10939 10935 10931 10927 10923 10920 10919 10913 10909 10905 10902 10899 10895 10892 10888
10987 10989 10990 10991 10992 10993 10993 10993 10992 10991 10989 10987 10985 10982 10980 10978 10975 10972 10968 10965 10961 10957 10954 10952 10949 10946 10942 10939 10935 10932 10928 10924 10920 10916 10913 10910 10906 10901 10898 10896 10892 10890 10887
10986 10988 10989 10989 10990 10991 10991 10990 10990 10989 10987 10985 10983 10981 10978 10974 10971 10968 10966 10963 10959 10954 10951 10947 10944 10942 10939 10935 10932 10929 10925 10920 10917 10913 10908 10905 10901 10898 10893 10889 10889 10885 10883
10983 10985 10987 10988 10989 10988 10988 10988 10987 10986 10984 10982 10980 10978 10976 10973 10970 10966 10963 10960 10956 10951 10947 10944 10940 10938 10935 10931 10928 10925 10921 10916 10912 10908 10903 10899 10895 10889 10886 10885 10880 10878 10875